Regional Weather Roundup
Issued by NWS

Home | Current Version | Previous Version | Text Only | Print | Product List | Glossary On
Versions: 1 2 3 4 5 6 7 8 9 10 11 12 13 14 15 16 17 18 19 20 21 22 23 24 25 26 27 28 29 30 31 32 33 34 35 36 37 38 39 40 41 42 43 44 45 46 47 48 49 50
000
ASUS43 KFSD 161910
RWRSD

WEATHER ROUNDUP FOR SOUTH DAKOTA
NATIONAL WEATHER SERVICE SIOUX FALLS SD
100 PM CST SAT DEC 16 2017

NOTE: "FAIR" INDICATES FEW OR NO CLOUDS BELOW 12,000 FEET WITH NO
SIGNIFICANT WEATHER AND/OR OBSTRUCTIONS TO VISIBILITY.


SDZ001>005-009-010-012>017-162000-
NORTHWEST AND NORTH CENTRAL SOUTH DAKOTA

CITY           SKY/WX    TMP DP  RH WIND       PRES   REMARKS
BUFFALO          N/A     36  25  64 NW16      29.88F
FAITH            N/A     37  28  70 NW12      29.95S
MOBRIDGE       CLOUDY    42  31  64 N7        29.91S
$$

SDZ012>016-024>037-041>051-057-063-072>074-162000-
SOUTHWEST AND SOUTH CENTRAL SOUTH DAKOTA

CITY           SKY/WX    TMP DP  RH WIND       PRES   REMARKS
RAPID CTY ARPT CLOUDY    37  28  70 N20       29.94F
PIERRE         PTSUNNY   42  33  70 N16       29.94S
CUSTER         LGT SNOW  31  28  89 CALM      29.86F VSB 3/4
ELLSWORTH AFB  CLOUDY    36  30  79 N20       29.93F
PHILIP         CLOUDY    40  31  70 N14       29.94F
PINE RIDGE     CLOUDY    38  30  73 N10       29.94F
SPEARFISH      LGT SNOW  30  28  93 NW6       29.97S WCI  24
WINNER         MOCLDY    42  33  70 N15       29.92F
$$

SDZ004>011-016>023-039-040-162000-
NORTHEAST SOUTH DAKOTA

CITY           SKY/WX    TMP DP  RH WIND       PRES   REMARKS
ABERDEEN       MOSUNNY   42  34  73 N9        29.92R
WATERTOWN      CLOUDY    39  34  82 NW12      29.88R
BROOKINGS      MOSUNNY   40  32  73 N20       29.85F
SISSETON         N/A     36  31  82 N6        29.89S
$$

SDZ017-020-022-023-036>040-048>070-162000-
SOUTHEAST SOUTH DAKOTA

CITY           SKY/WX    TMP DP  RH WIND       PRES   REMARKS
SIOUX FALLS    CLOUDY    46  33  60 N13       29.88R
HURON          CLOUDY    41  35  79 N18       29.90F
CHAMBERLAIN    CLOUDY    42  36  78 W3        29.93F
MITCHELL       CLOUDY    43  35  73 N10       29.92R
YANKTON        CLOUDY    42  31  64 NW12      29.88S
$$

ABBREVIATIONS USED IN REMARKS
   TC - TEMPERATURE IN CELSIUS
  WCI - WIND CHILL INDEX
   HX - HEAT INDEX
  VSB - VISIBILITY




USA.gov is the U.S. government's official web portal to all federal, state and local government web resources and services.